Regional Weather Roundup
Issued by NWS

Home | Current Version | Previous Version | Graphics & Text | Print | Product List | Glossary Off
Versions: 1 2 3 4 5 6 7 8 9 10 11 12 13 14 15 16 17 18 19 20 21 22 23 24 25 26 27 28 29 30 31 32 33 34 35 36 37 38 39 40 41 42 43 44 45 46 47 48 49 50

000
ASUS43 KMKX 261100
RWRWI

WISCONSIN REGIONAL WEATHER ROUNDUP
NATIONAL WEATHER SERVICE MILWAUKEE/SULLIVAN WI
600 AM CDT SAT JUL 26 2014

NOTE: "FAIR" INDICATES FEW OR NO CLOUDS BELOW 12,000 FEET WITH NO
SIGNIFICANT WEATHER AND/OR OBSTRUCTIONS TO VISIBILITY.

WIZ001-002-006>008-014>016-023>028-261200-
NORTHWEST WISCONSIN

CITY           SKY/WX    TMP DP  RH WIND       PRES   REMARKS
SUPERIOR ARPT  CLEAR     64  64 100 S6        29.75S FOG
ASHLAND        CLOUDY    70  67  90 SW7       29.75S
HAYWARD        CLOUDY    69  68  96 CALM      29.80R
SIREN          CLOUDY    70  68  95 W6        29.80R
RICE LAKE      CLOUDY    69  67  93 S3        29.82R FOG
LADYSMITH      CLOUDY    68  66  94 SW6       29.82S FOG
EAU CLAIRE     NOT AVBL
MENOMONIE      CLOUDY    70  68  94 CALM      29.81S
NEW RICHMOND   MOCLDY    70  69  98 SW5       29.81S FOG
OSCEOLA        CLEAR     69  69 100 CALM      29.83R FOG
$$

WIZ003>005-009-010-017-018-261200-
NORTH CENTRAL WISCONSIN

CITY           SKY/WX    TMP DP  RH WIND       PRES   REMARKS
WOODRUFF       CLOUDY    64  62  93 SW6       29.81S FOG
RHINELANDER    CLOUDY    63  63 100 SW8       29.82F FOG
EAGLE RIVER    DRZL/FOG  64  64 100 SW3       29.81F VSB 1
LAND O LAKES   CLOUDY    65  64  96 SW3       29.81F FOG
PHILLIPS       CLOUDY    65  65  99 SW6       29.80S FOG
TOMAHAWK       CLOUDY    64  62  96 CALM      29.83R FOG
MEDFORD        CLOUDY    64  64  97 SW6       29.82F FOG
MERRILL        CLOUDY    65  64  98 CALM      29.82S
$$

WIZ029-030-035-036-043>047-261200-
CENTRAL WISCONSIN

CITY           SKY/WX    TMP DP  RH WIND       PRES   REMARKS
WAUSAU         CLOUDY    65  63  93 CALM      29.81F
MOSINEE        CLOUDY    63  63 100 S5        29.84S FOG
MARSHFIELD     CLOUDY    66  64  93 SW7       29.83S
STEVENS POINT  CLOUDY    62  60  94 CALM      29.83S
WAUPACA        MOCLDY    65  63  91 S3        29.83F
WAUTOMA        CLOUDY    61  61 100 CALM      29.84S
WISC RAPIDS    CLOUDY    66  63  90 W5        29.85R
CAMP DOUGLAS   CLOUDY    64  64 100 W3        29.84R
$$

WIZ011>013-019>022-031-037>040-048>050-261200-
NORTHEAST WISCONSIN

CITY           SKY/WX    TMP DP  RH WIND       PRES   REMARKS
ANTIGO         CLOUDY    63  62  98 W5        29.83F FOG
STURGEON BAY   CLOUDY    64  61  88 S3        29.82S
GREEN BAY      CLOUDY    66  62  87 SW6       29.82F
MANITOWOC      NOT AVBL
APPLETON       MOCLDY    64  63  94 VRB6      29.84F
CLINTONVILLE   CLOUDY    63  61  94 SW3       29.82F
OSHKOSH        MOCLDY    64  61  90 CALM      29.84R FOG
$$

WIZ032>034-041-042-053>061-261200-
SOUTHWEST WISCONSIN

CITY           SKY/WX    TMP DP  RH WIND       PRES   REMARKS
LA CROSSE      NOT AVBL
SPARTA         CLOUDY    66  63  91 CALM      29.85R
VIROQUA        CLOUDY    64  64 100 CALM      29.85S
BOSCOBEL       CLOUDY    66  62  87 NW3       29.84S
PRAIRIE DU CHI CLOUDY    66  62  86 CALM      29.83R
PLATTEVILLE    CLOUDY    65  63  91 E3        29.85S
$$

WIZ056-057-062-063-064-067-068-261200-
SOUTH CENTRAL WISCONSIN

CITY           SKY/WX    TMP DP  RH WIND       PRES   REMARKS
BARABOO/DELLS  PTCLDY    64  60  87 SW3       29.83S
LONE ROCK      NOT AVBL
WATERTOWN      CLOUDY    62  61  97 SE5       29.84F
MADISON        MOCLDY    68  61  78 S5        29.84S
MIDDLETON      CLOUDY    66  63  91 CALM      29.85S
MONROE         CLOUDY    64  61  88 S7        29.84S
JANESVILLE     CLOUDY    68  59  73 CALM      29.84S
$$

WIZ051-052-058>065-066-070>072-261200-
SOUTHEAST WISCONSIN

CITY           SKY/WX    TMP DP  RH WIND       PRES   REMARKS
MILWAUKEE      MOCLDY    65  59  81 CALM      29.86S
WAUKESHA       CLOUDY    66  59  77 S5        29.86S
MILWAUKEE/TIMM MOCLDY    61  55  82 S3        29.86S
RACINE         CLOUDY    63  60  90 CALM      29.88R
BURLINGTON     CLOUDY    60  59  97 CALM      29.85S
KENOSHA        CLOUDY    63  60  90 CALM      29.86R
FOND DU LAC    CLEAR     63  59  87 VRB3      29.84R
SHEBOYGAN      MOCLDY    62  59  90 S5        29.83F
WEST BEND      CLEAR     59  55  88 CALM      29.84F
JUNEAU         CLEAR     60  58  91 S3        29.85F FOG
$$

LSZ147-162-261200-
LAKE SUPERIOR

STATION/POSITION TIME  TEMP    WIND        PRES    WAVE
                       AIR SEA DIR/SP/G            HT/PER
                 (UTC) (F)     (DEG/KT/KT) (MB)    (FT/S)
W MID LAKE BUOY  0950   54 48  180/  8/  8 1006.3F   0
PORT WING        1000   70     210/  6/  8 1007.1
SAXON HARBOR     1000          190/  8/ 11 1007.1F
$$

LMZ867-665-643>646-261200-
LAKE MICHIGAN

STATION/POSITION TIME  TEMP    WIND        PRES    WAVE
                       AIR SEA DIR/SP/G            HT/PER
                 (UTC) (F)     (DEG/KT/KT) (MB)    (FT/S)
N MID LAKE BUOY  0950   60 57  210/ 10/ 12 1009.1R   2/ 5
NORTHPORT PIER   1000   61     150/  4/  4 1009.8S
KEWAUNEE LAKESHO 1000   53     170/  2/  4 1010.6F
SHEBOYGAN LAKESH 1000   65     190/  5/  5 1010.6S
PORT WASHINGTON  1040   59     180/  1/  2 1011.2S
ATWATER BUOY     1000   62     200/  2     1011.8F
MILWAUKEE LAKESH 1000   64     220/  4/  5   N/A
S MID LAKE BUOY  0950   62 61  160/  6/  6 1011.3F   1/ 3
KENOSHA   LAKESH 1000   63     160/  4/  5 1010.5F
$$

TC  - TEMPERATURE IN CELSIUS
VSB - VISIBILITY IN STATUTE MILES
WCI - WIND CHILL INDEX
HX  - HEAT INDEX




USA.gov is the U.S. government's official web portal to all federal, state and local government web resources and services.